This demonstration page uses our WeatherBlox Daily Observations layout. Learn more.

Hourly Observations for December 15, 2018

Temp ( °F °C ) Dew Point ( °F °C ) Humidity (%) Winds ( mph kmh ) Pressure ( in mb ) Visibility ( mi km ) Precip ( " mm )
12:15 am 00:15 Cloudy with Light Drizzle 41 5 41 5 100 100 NNE 8 13 30.21 1023 2 3.218688 0.01 0.254
12:35 am 00:35 Cloudy with Light Drizzle 41 5 41 5 100 100 NNE 12 19 30.21 1023 2 3.218688 0.01 0.254
12:55 am 00:55 Cloudy with Light Rain 41 5 41 5 100 100 NNE 9 15 30.18 1022 2 3.218688 0.02 0.508
1:15 am 01:15 Cloudy with Mist and Fog 41 5 41 5 100 100 NNE 10 17 30.18 1022 2.5 4.02336 0 0
1:35 am 01:35 Cloudy with Light Rain 41 5 41 5 100 100 NNE 12 19 30.18 1022 3 4.828032 0 0
1:55 am 01:55 Cloudy with Light Rain 41 5 41 5 100 100 NNE 12 19 30.18 1022 2 3.218688 0.01 0.254
2:15 am 02:15 Cloudy with Light Drizzle 41 5 41 5 100 100 NNE 10 17 30.18 1022 3 4.828032 0.01 0.254
2:35 am 02:35 Cloudy with Drizzle 41 5 41 5 100 100 NE 9 15 30.18 1022 2.5 4.02336 0.01 0.254
2:55 am 02:55 Cloudy with Drizzle 41 5 41 5 100 100 NE 7 11 30.18 1022 2.5 4.02336 0.03 0.762
3:15 am 03:15 Cloudy with Drizzle 41 5 41 5 100 100 NNE 7 11 30.15 1021 2.5 4.02336 0.01 0.254
3:35 am 03:35 Cloudy with Rain 41 5 41 5 100 100 NNE 8 13 30.15 1021 2 3.218688 0.03 0.762
3:55 am 03:55 Cloudy with Light Rain 41 5 41 5 100 100 NNE 10 17 30.12 1020 2.5 4.02336 0.06 1.524
4:15 am 04:15 Cloudy with Drizzle 41 5 41 5 100 100 NNE 10 17 30.12 1020 3 4.828032 0.02 0.508
4:35 am 04:35 Cloudy with Heavy Rain 41 5 41 5 100 100 NNE 10 17 30.12 1020 2.5 4.02336 0.05 1.27
4:55 am 04:55 Cloudy with Heavy Drizzle 41 5 41 5 100 100 NNE 8 13 30.12 1020 2.5 4.02336 0.08 2.032
5:15 am 05:15 Cloudy with Rain 41 5 41 5 100 100 NNE 8 13 30.12 1020 2.5 4.02336 0.02 0.508
5:35 am 05:35 Cloudy with Light Rain 41 5 41 5 100 100 NNE 7 11 30.12 1020 2.5 4.02336 0.05 1.27
5:55 am 05:55 Cloudy with Rain 41 5 41 5 100 100 NNE 13 20 30.09 1019 2.5 4.02336 0.07 1.778
6:15 am 06:15 Cloudy with Rain 41 5 41 5 100 100 NNE 9 15 30.09 1019 2 3.218688 0.02 0.508
6:35 am 06:35 Cloudy with Light Rain 41 5 41 5 100 100 NNE 9 15 30.09 1019 2.5 4.02336 0.04 1.016
6:55 am 06:55 Cloudy with Light Rain 41 5 41 5 100 100 N 12 19 30.09 1019 2.5 4.02336 0.05 1.27
7:15 am 07:15 Cloudy with Rain 41 5 41 5 100 100 N 13 20 30.09 1019 2.5 4.02336 0.03 0.762
7:35 am 07:35 Cloudy with Rain 41 5 41 5 100 100 NNE 12 19 30.09 1019 2 3.218688 0.08 2.032
7:55 am 07:55 Cloudy with Rain 41 5 41 5 100 100 NNE 12 19 30.09 1019 2.5 4.02336 0.13 3.302
8:35 am 08:35 Cloudy with Rain 41 5 41 5 100 100 NNE 12 19 30.09 1019 2 3.218688 0.08 2.032
8:55 am 08:55 Cloudy with Rain 43 6 43 6 100 100 NNE 10 17 30.09 1019 2 3.218688 0.15 3.81
9:15 am 09:15 Cloudy with Heavy Rain 43 6 43 6 100 100 NNE 12 19 30.09 1019 1.75 2.816352 0.08 2.032
9:35 am 09:35 Cloudy with Heavy Rain 43 6 43 6 100 100 NNE 14 22 30.09 1019 2 3.218688 0.19 4.826
9:55 am 09:55 Cloudy with Heavy Rain 43 6 43 6 100 100 NNE 14 22 30.09 1019 2 3.218688 0.28 7.112
10:15 am 10:15 Cloudy with Heavy Rain 43 6 43 6 100 100 NNE 12 19 30.12 1020 2.5 4.02336 0.08 2.032
10:35 am 10:35 Cloudy with Heavy Rain 43 6 43 6 100 100 NNE 10 17 30.09 1019 1.75 2.816352 0.18 4.572
10:55 am 10:55 Cloudy with Heavy Rain 43 6 43 6 100 100 NNE 13 20 30.09 1019 3 4.828032 0.26 6.604
11:15 am 11:15 Cloudy with Rain 43 6 43 6 100 100 NNE 14 22 30.09 1019 4 6.437376 0.04 1.016
11:35 am 11:35 Cloudy with Rain 43 6 43 6 100 100 N 14 22 30.09 1019 2.5 4.02336 0.13 3.302
11:55 am 11:55 Cloudy with Heavy Rain 45 7 45 7 100 100 NNE 14 22 30.09 1019 5 8.04672 0.18 4.572
12:15 pm 12:15 Cloudy with Rain 45 7 45 7 100 100 NNE 13 20 30.09 1019 4 6.437376 0.04 1.016
12:35 pm 12:35 Cloudy with Rain 45 7 45 7 100 100 NNE 13 20 30.06 1018 4 6.437376 0.08 2.032
12:55 pm 12:55 Cloudy with Rain 45 7 45 7 100 100 NNE 14 22 30.06 1018 4 6.437376 0.1 2.54
1:15 pm 13:15 Cloudy with Rain 45 7 45 7 100 100 NNE 12 19 30.03 1017 4 6.437376 0.01 0.254
1:35 pm 13:35 Cloudy with Light Rain 45 7 45 7 100 100 NNE 14 22 30 1016 3 4.828032 0.02 0.508
1:55 pm 13:55 Cloudy with Drizzle 46 8 46 8 100 100 NNE 10 17 30 1016 3 4.828032 0.03 0.762
2:15 pm 14:15 Cloudy with Drizzle 46 8 46 8 100 100 NNE 10 17 30 1016 2.5 4.02336 0.02 0.508
2:35 pm 14:35 Cloudy with Rain 46 8 46 8 100 100 NNE 9 15 30 1016 2 3.218688 0.08 2.032
2:55 pm 14:55 Cloudy with Rain 46 8 46 8 100 100 NNE 9 15 30 1016 2.5 4.02336 0.14 3.556
3:15 pm 15:15 Cloudy with Heavy Rain 46 8 46 8 100 100 NNE 10 17 30 1016 2 3.218688 0.04 1.016
3:35 pm 15:35 Cloudy with Rain 46 8 46 8 100 100 NNE 10 17 30 1016 2 3.218688 0.11 2.794
3:55 pm 15:55 Cloudy with Light Rain 48 9 48 9 100 100 NNE 10 17 30 1016 3 4.828032 0.13 3.302
4:15 pm 16:15 Cloudy with Rain 48 9 48 9 100 100 NNE 9 15 30.03 1017 2.5 4.02336 0.02 0.508
4:35 pm 16:35 Cloudy with Light Rain 48 9 48 9 100 100 NNE 8 13 30.03 1017 3 4.828032 0.04 1.016
4:55 pm 16:55 Cloudy with Light Rain 48 9 48 9 100 100 NNE 6 9 30 1016 4 6.437376 0.04 1.016
5:15 pm 17:15 Cloudy with Light Drizzle 48 9 48 9 100 100 NNE 9 15 30.03 1017 4 6.437376 0 0
5:35 pm 17:35 Cloudy with Light Rain 48 9 48 9 100 100 N 9 15 30.03 1017 3 4.828032 0 0
5:55 pm 17:55 Cloudy with Drizzle 48 9 48 9 100 100 NNE 8 13 30.03 1017 3 4.828032 0 0
6:15 pm 18:15 Cloudy with Rain 48 9 48 9 100 100 NNE 8 13 30.03 1017 2.5 4.02336 0.02 0.508
6:35 pm 18:35 Cloudy with Light Rain 48 9 48 9 100 100 NNE 6 9 30.03 1017 2.5 4.02336 0.04 1.016
6:55 pm 18:55 Cloudy with Rain 48 9 48 9 100 100 NNE 7 11 30 1016 2 3.218688 0.08 2.032
7:15 pm 19:15 Cloudy with Rain 48 9 48 9 100 100 NNE 9 15 30 1016 2 3.218688 0.04 1.016
7:35 pm 19:35 Cloudy with Rain 46 8 46 8 100 100 NNE 9 15 30 1016 2.5 4.02336 0.09 2.286
7:55 pm 19:55 Cloudy with Rain 46 8 46 8 100 100 NNE 9 15 30 1016 2.5 4.02336 0.15 3.81
8:15 pm 20:15 Cloudy with Rain 46 8 46 8 100 100 NE 6 9 30 1016 2.5 4.02336 0.03 0.762
8:35 pm 20:35 Cloudy with Rain 46 8 46 8 100 100 NNE 7 11 30 1016 2 3.218688 0.1 2.54
8:55 pm 20:55 Cloudy with Rain 46 8 46 8 100 100 NNE 6 9 30 1016 2.5 4.02336 0.15 3.81
9:15 pm 21:15 Cloudy with Heavy Rain 46 8 46 8 100 100 N 8 13 30 1016 3 4.828032 0.05 1.27
9:35 pm 21:35 Cloudy with Heavy Rain 46 8 46 8 100 100 N 9 15 30 1016 3 4.828032 0.16 4.064
9:55 pm 21:55 Cloudy with Heavy Rain 46 8 46 8 100 100 N 9 15 30 1016 3 4.828032 0.27 6.858
10:15 pm 22:15 Cloudy with Heavy Rain 46 8 46 8 100 100 NNE 8 13 29.97 1015 3 4.828032 0.08 2.032
10:35 pm 22:35 Cloudy with Heavy Rain 46 8 46 8 100 100 NNE 5 7 29.97 1015 3 4.828032 0.17 4.318
10:55 pm 22:55 Cloudy with Heavy Rain 46 8 46 8 100 100 NNE 8 13 29.97 1015 2 3.218688 0.31 7.874
11:15 pm 23:15 Cloudy with Heavy Rain 46 8 46 8 100 100 NNE 12 19 29.97 1015 3 4.828032 0.09 2.286
11:35 pm 23:35 Cloudy with Rain 45 7 45 7 100 100 NE 10 17 29.97 1015 5 8.04672 0.13 3.302
11:55 pm 23:55 Cloudy with Rain 45 7 45 7 100 100 NE 10 17 29.97 1015 7 11.265408 0.14 3.556

Powered by AerisWeather